Flag for Germany Weather past 2 weeks in Forchheim, Bavaria, Germany

Now
38 °F

Drizzle. Low clouds.


Feels Like: 35 °F
Forecast: 34 / 45 °F
Wind: 3 mph from Southeast

Location: Bamberg

Current Time: Mar 1, 2015 at 12:45:17 PM

Latest Report: Mar 1, 2015 at 12:00 PM


Visibility: 1 mi

Pressure: 29.81 "Hg

Humidity: 96%

Dew point: 37 °F

Location of ForchheimLocation

Historic Weather in Forchheim — Graph

°F

Forchheim temperature yesterday

Maximum temperature yesterday: 44 °F (at 3:00 PM)
Minimum temperature yesterday: 34 °F (at 11:00 PM)
Average temperature yesterday: 38 °F

Past Weeks' High & Low Weather Summary

 TemperatureHumidityPressure
High53 °F (Feb 20, 4:00 PM)99% (Feb 17, 5:00 AM)30.79 "Hg (Feb 17, 5:00 AM)
Low19 °F (Feb 15, 8:00 AM)42% (Feb 26, 2:00 PM)29.50 "Hg (Feb 21, 12:00 PM)
Average34 °F83%30.07 "Hg
* Reported Feb 14 12:00 Noon — Mar 1 12:00 Noon, Forchheim, Weather by CustomWeather, © 2015

Note: Actual official high and low records may vary slightly from our data, if they occured in-between our weather recording intervals... More about our weather records

Advertising

Forchheim weather history for previous 24 hours

 ConditionsComfort  
Time TempWeatherWind HumidityBarometerVisibility
12:00 PM
Sun, Mar 1
38 °FDrizzle. Low clouds.3 mph96%29.81 "Hg1 mi
11:00 AM37 °FDrizzle. Low clouds.5 mph94%29.81 "Hg1 mi
10:00 AM35 °FLight freezing rain. Partly sunny.5 mph94%29.82 "Hg2 mi
9:00 AM34 °FLight snow. Partly sunny.5 mph92%29.84 "Hg2 mi
8:00 AM35 °FLight snow. Scattered clouds.5 mph83%29.86 "Hg4 mi
7:00 AM35 °FOvercast.3 mph82%29.86 "Hg5 mi
6:00 AM34 °FOvercast.5 mph84%29.87 "Hg6 mi
5:00 AM33 °FOvercast.2 mph84%29.92 "Hg7 mi
4:00 AM33 °FOvercast.2 mph84%29.94 "Hg7 mi
3:00 AM33 °FOvercast.3 mph82%29.96 "Hg8 mi
2:00 AM32 °FOvercast.2 mph83%30.00 "Hg8 mi
1:00 AM32 °FOvercast.2 mph83%30.02 "Hg9 mi
12:00 AM33 °FClear.2 mph81%30.04 "Hg11 mi
11:00 PM
Sat, Feb 28
34 °FPassing clouds.2 mph79%30.06 "Hg11 mi
10:00 PM35 °FClear.2 mph79%30.08 "Hg11 mi
9:00 PM37 °FOvercast.2 mph76%30.09 "Hg12 mi
8:00 PM37 °FOvercast.2 mph74%30.10 "Hg17 mi
7:00 PM39 °FOvercast.1 mph69%30.10 "Hg28 mi
6:00 PM41 °FOvercast.2 mph62%30.09 "Hg19 mi
5:00 PM43 °FOvercast.2 mph57%30.10 "Hg22 mi
4:00 PM44 °FScattered clouds.3 mph55%30.11 "Hg22 mi
3:00 PM44 °FOvercast.2 mph54%30.13 "Hg22 mi
2:00 PM43 °FOvercast.2 mph58%30.14 "Hg25 mi
1:00 PM41 °FSunny.2 mph60%30.16 "Hg19 mi
12:00 PM41 °FSunny.1 mph67%30.19 "Hg16 mi
Weather by CustomWeather, © 2015

See weather overviewHow to use our weather pages